RADUGA 3 [-]

Last updated on Nov. 16, 2019, 4:19 a.m. UTC

1 10159U 77071A   19318.90640976 -.00000352  00000-0  00000-0 0  9992
2 10159   9.9980 305.3864 0006923 228.3010 318.1632  1.00298783152918
UTC
Height (km)
Latitude
Longitude
Inclination
Orbital Period
UTC large
Height (km)
Speed (km/s)
/
Latitude / Longitude
Inclination (degrees)
Orbital Period (minutes)
Azimuth
Elevation
Range (km)
Doppler Factor
iOS Compass Heading
iOS Angle

Next 30 passes for location: Hong Kong

Rise time Rise Azimuth (degrees) Set time Set Azimuth (degrees) Duration Max altitude (degrees)

No matching passes for this satellites